FW9446 Weather Reports


Display with metric or nautical units.
time (UTC)temp
F
wind
direction
speed
MPH
gust
MPH
rain 1hr
in
rain 24hr
in
rain mn
in
humidity
%
barometer
mb
20260502164100 61 0 2.0 5.0 0.00 0.00 0.00 49 1016.2
20260502163557 61 109 1.0 5.0 0.00 0.00 0.00 45 1016.2
20260502163112 60 207 0.0 4.0 0.00 0.00 0.00 50 1016.3
20260502162557 60 98 1.0 6.0 0.00 0.00 0.00 53 1016.4
20260502162057 60 0 1.0 6.0 0.00 0.00 0.00 53 1016.4
20260502161623 60 0 1.0 6.0 0.00 0.00 0.00 57 1016.4
20260502161057 60 101 0.0 6.0 0.00 0.00 0.00 59 1016.3
20260502160556 59 0 0.0 4.0 0.00 0.00 0.00 54 1016.4
20260502152104 57 0 1.0 5.0 0.00 0.00 0.00 52 1016.2
20260502151611 57 0 1.0 5.0 0.00 0.00 0.00 55 1016.2
20260502151100 57 108 0.0 5.0 0.00 0.00 0.00 60 1016.1
20260502150557 57 224 1.0 9.0 0.00 0.00 0.00 52 1015.9
20260502140108 55 24 1.0 7.0 0.00 0.00 0.00 60 1015.5
20260502130600 53 246 0.0 7.0 0.00 0.00 0.00 73 1015.5
20260502130107 53 92 0.0 7.0 0.00 0.00 0.00 70 1015.4
20260502123558 52 281 0.0 5.0 0.00 0.00 0.00 70 1015.2
20260502123100 52 0 0.0 5.0 0.00 0.00 0.00 70 1015.2
20260502122559 52 0 0.0 3.0 0.00 0.00 0.00 70 1015.1
20260502122059 52 0 0.0 1.0 0.00 0.00 0.00 72 1015.0
20260502121602 52 0 0.0 0.0 0.00 0.00 0.00 73 1015.0
20260502121059 52 0 0.0 0.0 0.00 0.00 0.00 71 1015.1
20260502120603 51 0 0.0 0.0 0.00 0.00 0.00 72 1015.0
20260502115558 51 0 0.0 3.0 0.00 0.00 0.00 70 1015.0
20260502115101 51 0 0.0 3.0 0.00 0.00 0.00 71 1015.1
20260502114606 51 0 0.0 2.0 0.00 0.00 0.00 71 1015.1
20260502114100 51 0 0.0 2.0 0.00 0.00 0.00 70 1015.0
20260502113558 52 0 0.0 2.0 0.00 0.00 0.00 69 1015.1
20260502113058 52 0 0.0 2.0 0.00 0.00 0.00 70 1015.0
20260502112558 52 227 0.0 1.0 0.00 0.00 0.00 71 1014.9
20260502112101 52 0 0.0 3.0 0.00 0.00 0.00 69 1014.9
20260502111605 52 0 0.0 3.0 0.00 0.00 0.00 69 1014.8
20260502111059 52 0 0.0 3.0 0.00 0.00 0.00 69 1014.7
20260502110559 52 0 0.0 2.0 0.00 0.00 0.00 70 1014.9
20260502110059 52 0 0.0 3.0 0.00 0.00 0.00 70 1014.8
20260502105559 52 0 0.0 6.0 0.00 0.00 0.00 71 1014.6
20260502105059 52 0 1.0 8.0 0.00 0.00 0.00 70 1014.5
20260502104557 52 0 0.0 8.0 0.00 0.00 0.00 71 1014.5
20260502104058 52 0 0.0 2.0 0.00 0.00 0.00 69 1014.6
20260502103600 52 0 0.0 4.0 0.00 0.00 0.00 69 1014.4
20260502103106 52 0 0.0 4.0 0.00 0.00 0.00 71 1014.2
20260502102558 52 0 0.0 2.0 0.00 0.00 0.00 69 1014.2
20260502102058 52 0 0.0 2.0 0.00 0.00 0.00 68 1014.2
20260502101600 52 0 0.0 3.0 0.00 0.00 0.00 68 1014.4
20260502101058 52 0 0.0 3.0 0.00 0.00 0.00 67 1014.3
20260502100558 53 144 0.0 3.0 0.00 0.00 0.00 67 1014.4
20260502091058 53 0 0.0 4.0 0.00 0.00 0.00 67 1014.2
20260502090558 53 264 0.0 1.0 0.00 0.00 0.00 66 1014.1
20260502090115 54 0 0.0 5.0 0.00 0.00 0.00 64 1014.4
20260502071058 54 0 0.0 4.0 0.00 0.00 0.00 62 1014.7
20260502070558 54 0 0.0 0.0 0.00 0.00 0.00 61 1015.2
20260502070122 55 0 0.0 0.0 0.00 0.00 0.00 61 1015.4
20260502065559 55 0 0.0 0.0 0.00 0.00 0.00 60 1015.4
20260502065058 55 0 0.0 0.0 0.00 0.00 0.00 61 1015.3
20260502064602 55 0 0.0 2.0 0.00 0.00 0.00 59 1015.3
20260502064100 55 0 0.0 2.0 0.00 0.00 0.00 59 1015.3
20260502063558 55 0 0.0 2.0 0.00 0.00 0.00 57 1015.3
20260502063106 56 0 0.0 4.0 0.00 0.00 0.00 59 1015.2
20260502062558 56 0 0.0 4.0 0.00 0.00 0.00 58 1015.2
20260502062100 56 0 0.0 3.0 0.00 0.00 0.00 57 1015.2
20260502061606 56 296 0.0 2.0 0.00 0.00 0.00 58 1015.0
20260502061100 56 0 0.0 2.0 0.00 0.00 0.00 59 1015.2
20260502060604 56 0 0.0 1.0 0.00 0.00 0.00 56 1015.4
20260502060100 56 0 0.0 2.0 0.00 0.00 0.00 58 1015.5
20260502055601 56 0 0.0 2.0 0.00 0.00 0.00 57 1015.5
20260502055056 56 0 0.0 2.0 0.00 0.00 0.00 56 1015.5
20260502054557 56 0 0.0 2.0 0.00 0.00 0.00 55 1015.4
20260502054056 56 0 0.0 2.0 0.00 0.00 0.00 59 1015.3
20260502053559 57 0 0.0 1.0 0.00 0.00 0.00 56 1015.2
20260502053127 57 0 0.0 1.0 0.00 0.00 0.00 57 1015.0
20260502052556 57 0 0.0 2.0 0.00 0.00 0.00 56 1015.0
20260502052058 57 0 0.0 2.0 0.00 0.00 0.00 57 1014.9
20260502051617 57 0 0.0 3.0 0.00 0.00 0.00 55 1015.0
20260502051100 57 217 0.0 3.0 0.00 0.00 0.00 57 1015.0
20260502050559 57 144 0.0 3.0 0.00 0.00 0.00 58 1014.9
20260502045556 57 0 0.0 3.0 0.00 0.00 0.00 58 1015.0
20260502045059 57 0 0.0 3.0 0.00 0.00 0.00 60 1015.1
20260502044559 58 191 0.0 3.0 0.00 0.00 0.00 61 1015.1
20260502044058 58 74 0.0 3.0 0.00 0.00 0.00 59 1015.2
20260502043556 58 0 0.0 3.0 0.00 0.00 0.00 63 1015.1
20260502043111 58 0 0.0 3.0 0.00 0.00 0.00 62 1015.0
20260502042557 58 0 0.0 1.0 0.00 0.00 0.00 63 1014.9
20260502042056 58 0 0.0 2.0 0.00 0.00 0.00 61 1015.0
20260502041631 59 0 0.0 4.0 0.00 0.00 0.00 59 1015.1
20260502041056 59 0 0.0 4.0 0.00 0.00 0.00 58 1015.1
20260502040556 59 0 1.0 4.0 0.00 0.00 0.00 61 1015.2
20260502040056 59 219 1.0 6.0 0.00 0.00 0.00 59 1015.3
20260502035556 59 0 0.0 6.0 0.00 0.00 0.00 60 1015.1
20260502035056 59 0 1.0 8.0 0.00 0.00 0.00 61 1015.1
20260502034559 59 0 1.0 8.0 0.00 0.00 0.00 63 1015.1
20260502034056 59 0 0.0 4.0 0.00 0.00 0.00 63 1015.1
20260502033559 59 0 1.0 4.0 0.00 0.00 0.00 65 1015.0
20260502033107 59 0 0.0 3.0 0.00 0.00 0.00 65 1015.2
20260502032555 59 228 0.0 5.0 0.00 0.00 0.00 66 1015.2
20260502032056 59 0 0.0 5.0 0.00 0.00 0.00 68 1015.1
20260502031600 59 173 0.0 3.0 0.00 0.00 0.00 69 1015.1
20260502031058 59 0 0.0 2.0 0.00 0.00 0.00 69 1015.1
20260502030558 59 0 0.0 3.0 0.00 0.00 0.00 69 1015.0
20260502030057 59 0 0.0 5.0 0.00 0.00 0.00 69 1015.0
20260502025558 59 0 0.0 5.0 0.00 0.00 0.00 70 1015.0
20260502025058 59 0 0.0 3.0 0.00 0.00 0.00 73 1014.7
20260502024557 58 0 0.0 3.0 0.00 0.00 0.00 71 1014.7
20260502024058 58 0 0.0 3.0 0.00 0.00 0.00 72 1014.6
20260502023559 57 0 0.0 3.0 0.00 0.00 0.00 72 1014.7
20260502023100 57 0 0.0 3.0 0.00 0.00 0.00 78 1014.8
20260502022558 56 0 0.0 3.0 0.00 0.00 0.00 82 1014.7
20260502022057 56 0 0.0 2.0 0.00 0.00 0.00 83 1014.7
20260502021556 56 0 0.0 0.0 0.00 0.00 0.00 85 1014.7
20260502021057 56 0 0.0 0.0 0.00 0.00 0.00 85 1014.7
20260502020600 56 0 0.0 0.0 0.00 0.00 0.00 85 1014.7
20260502020106 56 0 0.0 0.0 0.00 0.00 0.00 84 1014.5
20260502015558 56 0 0.0 0.0 0.00 0.00 0.00 84 1014.5
20260502015059 56 0 0.0 0.0 0.00 0.00 0.00 83 1014.4
20260502014556 56 0 0.0 0.0 0.00 0.00 0.00 83 1014.4
20260502014059 56 0 0.0 0.0 0.00 0.00 0.00 84 1014.4
20260502013558 56 0 0.0 0.0 0.00 0.00 0.00 84 1014.4
20260502013059 57 0 0.0 0.0 0.00 0.00 0.00 85 1014.3
20260502012601 57 0 0.0 0.0 0.00 0.00 0.00 84 1014.3
20260502012059 57 0 0.0 0.0 0.00 0.00 0.00 85 1014.3
20260502011603 57 0 0.0 0.0 0.00 0.00 0.00 84 1014.2
20260502011057 57 0 0.0 0.0 0.00 0.00 0.00 83 1014.0
20260502010559 57 0 0.0 0.0 0.00 0.00 0.00 84 1014.0
20260502005559 57 0 0.0 0.0 0.00 0.00 0.00 82 1013.7
20260502005059 58 0 0.0 0.0 0.00 0.00 0.00 81 1013.7
20260502004607 58 0 0.0 0.0 0.00 0.00 0.00 81 1013.6
20260502004059 58 0 0.0 0.0 0.00 0.00 0.00 82 1013.5
20260502003601 58 0 0.0 0.0 0.00 0.00 0.00 82 1013.5
20260502003057 59 0 0.0 0.0 0.00 0.00 0.00 81 1013.4
20260502002558 59 0 0.0 0.0 0.00 0.00 0.00 80 1013.5
20260502002058 59 0 0.0 0.0 0.00 0.00 0.00 81 1013.5
20260502001602 59 0 0.0 0.0 0.00 0.00 0.00 80 1013.3
20260502001058 60 0 0.0 0.0 0.00 0.00 0.00 80 1013.2
20260502000602 60 0 0.0 0.0 0.00 0.00 0.00 80 1013.1
20260502000056 60 0 0.0 0.0 0.00 0.00 0.00 79 1013.1
20260501235559 61 0 0.0 0.0 0.00 0.00 0.00 80 1013.3
20260501235058 61 0 0.0 0.0 0.00 0.00 0.00 79 1013.2
20260501234557 62 0 0.0 0.0 0.00 0.00 0.00 78 1013.1
20260501234057 62 0 0.0 0.0 0.00 0.00 0.00 79 1013.0
20260501233558 62 0 0.0 0.0 0.00 0.00 0.00 77 1013.2
20260501233110 62 0 0.0 0.0 0.00 0.00 0.00 77 1013.3
20260501232558 62 0 0.0 0.0 0.00 0.00 0.00 76 1013.3
20260501232058 63 0 0.0 0.0 0.00 0.00 0.00 74 1013.2
20260501231629 63 0 0.0 0.0 0.00 0.00 0.00 74 1013.1
20260501231058 63 0 0.0 0.0 0.00 0.00 0.00 72 1013.2
20260501230600 64 0 0.0 0.0 0.00 0.00 0.00 72 1013.1
20260501230058 64 0 0.0 0.0 0.00 0.00 0.00 70 1013.0
20260501225558 65 0 0.0 0.0 0.00 0.00 0.00 69 1012.7
20260501225059 65 0 0.0 0.0 0.00 0.00 0.00 68 1012.7
20260501224558 66 0 0.0 0.0 0.00 0.00 0.00 67 1012.7
20260501224059 66 0 0.0 0.0 0.00 0.00 0.00 62 1012.6
20260501223600 66 0 0.0 1.0 0.00 0.00 0.00 65 1012.5
20260501223129 67 0 0.0 1.0 0.00 0.00 0.00 56 1012.6
20260501222558 67 0 0.0 2.0 0.00 0.00 0.00 58 1012.5
20260501222058 67 0 0.0 2.0 0.00 0.00 0.00 54 1012.6
20260501221559 67 0 0.0 2.0 0.00 0.00 0.00 52 1012.5
20260501221059 67 0 0.0 0.0 0.00 0.00 0.00 54 1012.4
20260501220557 67 0 0.0 2.0 0.00 0.00 0.00 51 1012.4
20260501220057 67 0 0.0 2.0 0.00 0.00 0.00 57 1012.5
20260501215557 67 0 0.0 2.0 0.00 0.00 0.00 52 1012.6
20260501215101 67 0 0.0 2.0 0.00 0.00 0.00 53 1012.8
20260501214559 67 0 0.0 3.0 0.00 0.00 0.00 65 1012.8
20260501214057 67 0 0.0 3.0 0.00 0.00 0.00 53 1012.9
20260501213557 67 146 0.0 3.0 0.00 0.00 0.00 54 1012.8
20260501213101 67 0 0.0 2.0 0.00 0.00 0.00 58 1013.1
20260501212559 67 0 0.0 4.0 0.00 0.00 0.00 56 1013.4
20260501212058 67 231 0.0 4.0 0.00 0.00 0.00 56 1013.4
20260501211558 67 0 0.0 2.0 0.00 0.00 0.00 61 1013.4
20260501211057 67 0 0.0 2.0 0.00 0.00 0.00 60 1013.5
20260501210559 66 0 0.0 2.0 0.00 0.00 0.00 57 1013.6
20260501210059 66 234 0.0 2.0 0.00 0.00 0.00 57 1013.7
20260501205558 66 0 0.0 2.0 0.00 0.00 0.00 61 1013.6
20260501205058 66 0 0.0 1.0 0.00 0.00 0.00 61 1013.6
20260501204618 66 0 0.0 1.0 0.00 0.00 0.00 56 1013.6
20260501204057 66 0 0.0 1.0 0.00 0.00 0.00 58 1013.9
20260501203557 66 0 0.0 1.0 0.00 0.00 0.00 57 1013.9
20260501203058 66 0 0.0 3.0 0.00 0.00 0.00 61 1013.8
20260501202557 66 0 0.0 3.0 0.00 0.00 0.00 61 1013.8
20260501202058 66 0 0.0 2.0 0.00 0.00 0.00 60 1014.0
20260501201608 66 0 0.0 1.0 0.00 0.00 0.00 63 1013.9
20260501201057 66 0 0.0 0.0 0.00 0.00 0.00 59 1014.1
20260501200600 66 0 0.0 0.0 0.00 0.00 0.00 57 1014.0
20260501200057 66 0 0.0 1.0 0.00 0.00 0.00 57 1014.1
20260501195558 67 0 0.0 1.0 0.00 0.00 0.00 63 1014.4
20260501195100 66 0 0.0 1.0 0.00 0.00 0.00 55 1014.4
20260501194600 66 173 0.0 1.0 0.00 0.00 0.00 55 1014.3
20260501194058 66 0 0.0 2.0 0.00 0.00 0.00 55 1014.3
20260501193600 66 0 0.0 2.0 0.00 0.00 0.00 62 1014.4
20260501193100 66 0 0.0 2.0 0.00 0.00 0.00 56 1014.4
20260501192601 66 0 0.0 1.0 0.00 0.00 0.00 58 1014.4
20260501192057 66 0 0.0 1.0 0.00 0.00 0.00 55 1014.5
20260501191601 66 0 0.0 1.0 0.00 0.00 0.00 50 1014.5
20260501191057 66 0 0.0 1.0 0.00 0.00 0.00 55 1014.6
20260501190601 66 0 0.0 1.0 0.00 0.00 0.00 50 1014.6
20260501190056 66 0 0.0 0.0 0.00 0.00 0.00 60 1014.6
20260501185559 66 0 0.0 0.0 0.00 0.00 0.00 59 1014.5
20260501185058 66 0 0.0 0.0 0.00 0.00 0.00 60 1014.5
20260501184603 66 0 0.0 0.0 0.00 0.00 0.00 60 1014.4
20260501184058 66 0 0.0 3.0 0.00 0.00 0.00 55 1014.3
20260501183601 66 0 0.0 3.0 0.00 0.00 0.00 52 1014.3
20260501183103 66 0 0.0 3.0 0.00 0.00 0.00 49 1014.5
20260501182556 66 0 0.0 2.0 0.00 0.00 0.00 49 1014.6
20260501182057 66 0 0.0 3.0 0.00 0.00 0.00 48 1014.6
20260501181600 66 0 0.0 3.0 0.00 0.00 0.00 52 1014.6
20260501181100 67 243 0.0 3.0 0.00 0.00 0.00 52 1014.5
20260501180557 67 0 0.0 2.0 0.00 0.00 0.00 48 1014.7
20260501180105 67 162 0.0 3.0 0.00 0.00 0.00 54 1014.8